FENGYUN 1C DEB, 35245

Orbit data source: Space-Track

FENGYUN 1C DEB, 35245 is space debris in SSO originally from a launch on Mon, 10 May 1999 UTC launched from the Taiyaun Space Center, China (TSC). Fengyun 1C debris stems from the Chinese weather satellite Fengyun-1C, which was intentionally destroyed by a Chinese anti-satellite missile in 2007. This event dramatically increased the amount of space debris, with thousands of trackable fragments posing hazards to satellites and human spaceflight. The Fengyun 1C debris cloud has become a focal point in discussions about space sustainability and the need for international regulations to prevent the creation of new debris.

Loading next visibility...
Identifier
35245, 1999-025DRD
Orbit
SSO
Country
Flag of CNCN / PRC
Related business
Manufacturer
Unknown
Mission
Spacecraft
Bus & Motor
Unknown
Mass
Unknown
Launch date (UTC)
1999-05-10 (27 years ago)
Launch vehicle
Unknown
Launch site
Taiyaun Space Center, China (TSC)
Object type
Payload
Rocket body
Debris
Shape & HBR
Unknown shape, 0.1 m
Radar Cross Section
Small (<0.1 m²)

Expand to show TLE details & history
Last TLE update: 22 hours ago

TLE from 22 hours ago
0 FENGYUN 1C DEB
1 35245U 99025DRD 26145.51619809  .00002542  00000-0  13352-2 0  9990
2 35245  99.0776 238.5199 0060433 168.7964 210.8730 14.14130118900917
Epoch: 2026-05-25T12:23Z
TLE epoch observation values (Epoch: 2026-05-25T12:23:19.514Z)
Latitude
19.06354°
Longitude
166.4373°
Altitude
885.226 km
Speed
7.392 km/s
True Right ascension
15h 41m 29s
True Declination
18° 57' 34"
Sunlit
Object was in full shadow at epoch
Visualization orbit readout
Latitude
Unknown
Longitude
Unknown
Altitude
Unknown
Speed
Unknown
Apparent Right ascension
Unknown
Apparent Declination
Unknown
Sunlit
N/A
Visualization observer readout
Local Sidereal Time
19:47:29
Azimuth
Unknown
Elevation
Unknown
Doppler factor
Unknown
Orbital elements
Apogee altitude
886.093 km
Perigee altitude
798.821 km
Semi-major axis
7,220.594 km
Eccentricity
0.00604
Inclination
99.0776°
RAAN
238.5199°
Arg. of periapsis
168.7964°
True anomaly
210.51994°
Mean anomaly
210.873°
Eccentric anomaly
210.69624°
Mean motion
3.5374 °/min
Orbital period
101.77 mins
BSTAR
0.0013352
Loading maneuver chart data...
Computing Atmospheric mass density...

Documentation

Showing up to 5 results
|